Location: Bachorce
(52.6659°N, 18.4200°E)
Time: 18:12:50
(UTC+01:00)

ISS - Visible Passes

Search period start: 16 January 2019 00:00
Search period end: 26 January 2019 00:00
Orbit: 404 x 407 km, 51.6° (Epoch: 17 January)

Date Brightness Start Highest point End Pass type
(mag) Time Alt. Az. Time Alt. Az. Time Alt. Az.
23 Jan -1.3 18:37:21 10° SSW 18:38:06 14° S 18:38:06 14° S visible
24 Jan -1.5 17:46:33 10° SSE 17:48:02 13° SE 17:48:29 12° SE visible
24 Jan -0.8 19:20:46 10° SW 19:21:11 13° SW 19:21:11 13° SW visible
25 Jan -2.4 18:29:06 10° SW 18:31:29 29° S 18:31:29 29° S visible
